Home   Weather   New Melbourne   Past weeks
Flag for Canada

Past Weather in New Melbourne, Newfoundland and Labrador, Canada — Yesterday and Last 2 Weeks

Now
45 °F

Overcast.


Feels Like: 38 °F
Forecast: N/A
Wind: 14 mph from West

Location: St. John's

Current Time: Oct 20, 2019 at 7:05:19 pm

Latest Report: Oct 20, 2019 at 5:43 pm


Visibility: 15 mi

Pressure: 29.69 "Hg

Humidity: 93%

Dew Point: 43 °F

Location of New MelbourneLocation

Past Weather in New Melbourne — Graph

°F

New Melbourne Temperature Yesterday

Maximum temperature yesterday: 61 °F (at 11:30 am)
Minimum temperature yesterday: 45 °F (at 9:30 pm)
Average temperature yesterday: 54 °F

High & Low Weather Summary for the Past Weeks

 TemperatureHumidityPressure
High68 °F (Oct 13, 1:30 pm)100% (Oct 7, 7:51 pm)30.59 "Hg (Oct 7, 7:51 pm)
Low36 °F (Oct 6, 6:30 am)51% (Oct 9, 4:30 pm)29.55 "Hg (Oct 20, 1:30 am)
Average49 °F88%30.05 "Hg
* Reported Oct 5 5:30 pm — Oct 20 5:43 pm, New Melbourne. Weather by CustomWeather, © 2019

Note: Actual official high and low records may vary slightly from our data, if they occured in-between our weather recording intervals... More about our weather records

Advertising

New Melbourne Weather History for the Previous 24 Hours

Scroll right to see more
 ConditionsComfort  
Time TempWeatherWind HumidityBarometerVisibility
5:43 pm
Sun, Oct 20
45 °FOvercast.14 mph93%29.69 "Hg15 mi
5:22 pm45 °FSprinkles. Broken clouds.10 mph93%29.68 "Hg12 mi
5:00 pm45 °FRain showers. Fog.15 mph93%29.67 "Hg1 mi
4:55 pm45 °FSprinkles. Fog.15 mph93%29.67 "Hg2 mi
4:30 pm46 °FOvercast.14 mph82%29.66 "Hg15 mi
3:30 pm48 °FScattered clouds.13 mph82%29.64 "Hg15 mi
2:30 pm48 °FPartly sunny.23 mph71%29.62 "Hg15 mi
1:30 pm46 °FSprinkles. Overcast.24 mph76%29.62 "Hg15 mi
12:30 pm52 °FScattered clouds.16 mph67%29.63 "Hg15 mi
11:30 am48 °FPartly sunny.22 mph71%29.63 "Hg15 mi
10:30 am46 °FPartly sunny.21 mph82%29.63 "Hg15 mi
9:30 am46 °FPartly sunny.21 mph82%29.62 "Hg15 mi
8:30 am45 °FPartly sunny.16 mph87%29.60 "Hg15 mi
7:30 am45 °FOvercast.16 mph87%29.59 "Hg15 mi
6:30 am45 °FPassing clouds.16 mph87%29.58 "Hg15 mi
5:30 am45 °FPartly cloudy.17 mph87%29.58 "Hg15 mi
4:30 am45 °FPassing clouds.16 mph87%29.58 "Hg15 mi
4:22 am45 °FMostly cloudy.16 mph87%29.58 "Hg15 mi
3:30 am46 °FLow clouds.17 mph87%29.57 "Hg15 mi
3:04 am46 °FPassing clouds.17 mph93%29.56 "Hg15 mi
2:30 am46 °FDrizzle. Low clouds.21 mph100%29.55 "Hg15 mi
1:30 am46 °FDrizzle. Overcast.20 mph93%29.55 "Hg15 mi
12:30 am46 °FDrizzle. Low clouds.21 mph93%29.55 "Hg15 mi
12:13 am46 °FOvercast.18 mph93%29.55 "Hg15 mi
11:51 pm
Sat, Oct 19
46 °FLow clouds.17 mph93%29.55 "Hg15 mi
11:01 pm46 °FOvercast.16 mph87%29.57 "Hg15 mi
10:30 pm45 °FPassing clouds.16 mph93%29.58 "Hg15 mi
9:30 pm45 °FClear.12 mph93%29.59 "Hg15 mi
8:30 pm46 °FClear.8 mph87%29.59 "Hg15 mi
7:30 pm48 °FPassing clouds.10 mph87%29.59 "Hg15 mi
Weather by CustomWeather, © 2019

See weather overview